[[{"header":{"parameterUnit":"m.s-1","parameterCategory":2,"la1":30.2991,"la2":30.254,"lo1":-89.0895,"lo2":-89.0444,"dy":0.0017,"dx":0.0017,"nx":28,"ny":28,"refTime":"2025-12-02T03:00:00:Z","depth":"0","parameterNumber":2,"parameterNumberName":"U-component_of_CURRENTS"},"data":[0,0,0,0,0,0,0,0,0,0,0,0,0,0,0,0,0,0,0,0,0,0,0,0,0,0,0,0,0,0,0,0,0,0,0,0,0,0,0,0,0,0,0,0,0,0,0,0,0,0,0,0,0,0,0,0,0,0,0.2992,0.2992,0,0.296,0.2959,0.2959,0.2922,0.2922,0.2922,0.2921,0.2879,0.2878,0.2877,0,0,0,0,0,0,0,0,0,0,0,0,0,0.3012,0.3012,0.2992,0.2992,0.2992,0.296,0.2959,0.2958,0.2922,0.2922,0.2922,0.2921,0.2879,0.2878,0.2877,0,0,0,0,0,0,0,0,0,0,0,0,0,0.2991,0.3012,0.2992,0.2973,0.2971,0.296,0.2959,0.2958,0.2922,0.2922,0.2921,0.2921,0.2879,0.2878,0.2877,0.2875,0,0,0.2872,0.2872,0,0,0,0,0,0,0,0,0.2992,0.299,0.2976,0.2974,0.2972,0.2948,0.2951,0.2931,0.2922,0.2937,0.2921,0.2921,0.2903,0.29,0.289,0.2873,0.2871,0.2872,0.2872,0.2871,0.2871,0,0,0,0,0,0,0,0.2994,0.2991,0.2976,0.2976,0.2973,0.2962,0.2958,0.2947,0.292,0.2936,0.2934,0.2936,0.2902,0.2891,0.2889,0.2871,0.2872,0.2871,0.287,0.287,0.2884,0.2885,0,0,0,0,0,0,0.3005,0.2992,0.2977,0.2975,0.2985,0.2962,0.2958,0.2953,0.292,0.2916,0.2936,0.2934,0.2894,0.289,0.2887,0.2905,0.2871,0.287,0.2869,0.2883,0.2885,0.2886,0,0,0,0,0,0,0.3006,0.3004,0.2978,0.2986,0.2983,0.2963,0.2957,0.2953,0.2948,0.2921,0.2916,0.2937,0.2893,0.2889,0.2888,0.2903,0.2869,0.2868,0.2882,0.2884,0.2885,0.2928,0,0,0,0,0,0,0.3006,0.3004,0.3007,0.2987,0.2983,0.2982,0.2958,0.2952,0.2951,0.2948,0.2921,0.2916,0.2893,0.289,0.2887,0.29,0.2867,0.288,0.2883,0.2885,0.2925,0.2931,0.2936,0,0,0,0,0,0.3007,0.3011,0.3007,0.3005,0.2986,0.2983,0.298,0.2962,0.2952,0.2955,0.2939,0.2917,0.2902,0.289,0.2885,0.2899,0.2879,0.2882,0.2884,0.2923,0.293,0.2936,0,0,0,0,0,0,0.3024,0.3007,0.3002,0.3002,0.2999,0.2978,0.298,0.297,0.2958,0.2955,0.2927,0.2922,0.293,0.2912,0.29,0.2913,0.2889,0.2891,0.292,0.2927,0.2932,0.2945,0.2866,0,0,0,0,0,0.3031,0.3026,0.3016,0.3018,0.3017,0.3001,0.2999,0.2989,0.2976,0.297,0.2952,0.2939,0.2937,0.293,0.2923,0.2925,0.293,0.2934,0.294,0.2945,0.2954,0.2978,0.2986,0.2895,0.2895,0.2895,0,0,0.3038,0.303,0.3027,0.3021,0.3014,0.3015,0.2998,0.2999,0.3,0.2969,0.2965,0.2959,0.2944,0.2949,0.2951,0.2935,0.2975,0.2948,0.2952,0.2959,0.2982,0.2991,0.2998,0.2897,0.2896,0.2896,0,0,0.3047,0.3045,0.3041,0.3042,0.3039,0.3033,0.3038,0.3024,0.3019,0.3019,0.3004,0.3012,0.2992,0.2992,0.2988,0.3023,0.3008,0.3019,0.3049,0.3072,0.308,0.3087,0.3112,0.312,0.3016,0.3016,0.3016,0,0.3059,0.3046,0.3043,0.3044,0.3044,0.3044,0.3043,0.3046,0.3034,0.3036,0.3025,0.3028,0.3016,0.3034,0.3046,0.3035,0.3045,0.3021,0.3079,0.3086,0.3092,0.3116,0.3125,0.3018,0.3018,0.3018,0.3018,0,0.3056,0.3055,0.3057,0.3054,0.306,0.3062,0.3067,0.3074,0.3071,0.3071,0.309,0.3083,0.3084,0.3087,0.3074,0.3114,0.3107,0.3087,0.3061,0.3104,0.3126,0.3135,0.3022,0.3021,0.302,0.302,0,0,0.3049,0.3052,0.3051,0.3047,0.3061,0.3059,0.3083,0.3093,0.3113,0.3114,0.3136,0.3144,0.3148,0.3146,0.314,0.3162,0.3215,0.3145,0.3145,0.3167,0.3272,0.3233,0.3238,0.3203,0.3205,0.3206,0.3272,0,0.3042,0.3038,0.3046,0.3048,0.3042,0.3062,0.3084,0.3103,0.3125,0.3153,0.3165,0.3188,0.3168,0.3179,0.3199,0.3218,0.3239,0.32,0.3229,0.323,0.3188,0.3247,0.3108,0.3152,0.328,0.3282,0.3283,0,0.3021,0.3021,0.3016,0.303,0.3032,0.3043,0.3077,0.31,0.3156,0.3182,0.3217,0.323,0.3273,0.3247,0.3302,0.3277,0.328,0.3289,0.3291,0.3246,0.3207,0.3128,0.3162,0.3061,0.3296,0.3295,0.3294,0,0.2982,0.2993,0.2984,0.2988,0.3014,0.3021,0.3043,0.31,0.3133,0.3207,0.3243,0.3292,0.3323,0.3343,0.336,0.3336,0.342,0.3383,0.3351,0.3348,0.3232,0.3216,0.3166,0.3418,0.3418,0.3418,0.3418,0,0.2951,0.294,0.2964,0.2954,0.2962,0.2993,0.3022,0.3068,0.3146,0.3187,0.325,0.3298,0.335,0.3393,0.3394,0.341,0.3445,0.3377,0.3369,0.3243,0.3228,0.3135,0.31,0.342,0.342,0.3419,0.3419,0,0.2894,0.291,0.2899,0.2925,0.2936,0.2938,0.3001,0.3028,0.3119,0.318,0.3207,0.3321,0.3387,0.3429,0.3483,0.3453,0.3369,0.346,0.3315,0.3288,0.3144,0.3117,0.2999,0.2903,0.3437,0.3437,0.3436,0,0.2859,0.2847,0.2867,0.2861,0.2867,0.2887,0.2904,0.3,0.304,0.318,0.3201,0.3312,0.3369,0.3458,0.3441,0.3454,0.3346,0.3321,0.3244,0.3135,0.31,0.2995,0.2915,0.3111,0.3108,0.3106,0.3104,0,0.2793,0.2803,0.2798,0.2791,0.2795,0.2805,0.284,0.2877,0.2986,0.305,0.3146,0.3217,0.3325,0.3299,0.3337,0.3319,0.3149,0.3269,0.3186,0.2875,0.2727,0.263,0.3079,0.3081,0.3084,0.3085,0.3086,0.3087,0.2742,0.2722,0.2719,0.2699,0.2705,0.2697,0.2673,0.2733,0.2784,0.2847,0.3008,0.3049,0.3123,0.3167,0.3139,0.2993,0.3003,0.2875,0.2867,0.2782,0.2635,0.3046,0.3019,0.302,0.3022,0.3023,0.3024,0,0.2653,0.2637,0.2623,0.2584,0.2539,0.2584,0.2598,0.2559,0.2557,0.2675,0.2744,0.2783,0.2772,0.2802,0.273,0.2606,0.2479,0.2515,0.2322,0.2273,0.2662,0.2592,0.2433,0.2433,0.2433,0.2433,0.2433,0.2433,0.2604,0.2546,0.2529,0.2418,0.2391,0.2297,0.2277,0.2259,0.2302,0.2309,0.2322,0.2412,0.2533,0.2519,0.2378,0.231,0.211,0.2007,0.2013,0.2278,0.231,0.234,0.2264,0.2039,0.2038,0.1504,0.15,0.1497]},{"header":{"parameterUnit":"m.s-1","parameterCategory":2,"la1":30.2991,"la2":30.254,"lo1":-89.0895,"lo2":-89.0444,"dy":0.0017,"dx":0.0017,"nx":28,"ny":28,"refTime":"2025-12-02T03:00:00:Z","depth":"0","parameterNumber":3,"parameterNumberName":"V-component_of_CURRENTS"},"data":[0,0,0,0,0,0,0,0,0,0,0,0,0,0,0,0,0,0,0,0,0,0,0,0,0,0,0,0,0,0,0,0,0,0,0,0,0,0,0,0,0,0,0,0,0,0,0,0,0,0,0,0,0,0,0,0,0,0,0.0082,0.0082,0,0.0036,0.0036,0.0035,0.0004,0.0004,0.0004,0.0004,-0.0068,-0.007,-0.0072,0,0,0,0,0,0,0,0,0,0,0,0,0,0.0079,0.0079,0.0082,0.0082,0.0082,0.0036,0.0036,0.0035,0.0004,0.0004,0.0004,0.0004,-0.0067,-0.007,-0.0072,0,0,0,0,0,0,0,0,0,0,0,0,0,0.0059,0.0079,0.0083,0.0062,0.006,0.0037,0.0036,0.0035,0.0004,0.0004,0.0004,0.0004,-0.0067,-0.0069,-0.0072,-0.0089,0,0,-0.0081,-0.0082,0,0,0,0,0,0,0,0,0.0061,0.0059,0.0066,0.0064,0.0061,0.0028,0.0008,-0.0007,0.0004,0.0023,0.0004,0.0004,-0.0037,-0.0042,-0.0054,-0.0092,-0.0095,-0.0081,-0.0083,-0.0084,-0.0085,0,0,0,0,0,0,0,0.0062,0.0061,0.0062,0.0065,0.0063,0.0033,0.0031,0.0005,-0.0008,0.0021,0.002,0.0018,-0.0039,-0.0051,-0.0055,-0.0096,-0.0081,-0.0084,-0.0085,-0.0086,-0.0139,-0.0139,0,0,0,0,0,0,0.0076,0.0063,0.0064,0.0061,0.0063,0.0034,0.0031,0.0037,-0.0008,-0.0014,0.0018,0.0016,-0.0046,-0.0052,-0.0058,-0.0059,-0.0084,-0.0087,-0.0088,-0.0139,-0.0139,-0.0139,0,0,0,0,0,0,0.0076,0.0076,0.0065,0.0062,0.0059,0.0035,0.0041,0.0036,0.0028,-0.001,-0.0016,0.0016,-0.0046,-0.0054,-0.0072,-0.0062,-0.0088,-0.0091,-0.014,-0.0139,-0.0139,-0.0074,0,0,0,0,0,0,0.0076,0.0077,0.0083,0.0063,0.0059,0.0061,0.0041,0.0035,0.0028,0.0026,-0.0014,-0.002,-0.0047,-0.0068,-0.0075,-0.0067,-0.0093,-0.014,-0.014,-0.0139,-0.0076,-0.0071,-0.0067,0,0,0,0,0,0.0076,0.0089,0.0083,0.0083,0.0069,0.0062,0.0057,0.0038,0.0028,0.0029,0.0004,-0.0019,-0.007,-0.007,-0.0078,-0.0071,-0.014,-0.014,-0.0139,-0.0078,-0.0072,-0.0067,0,0,0,0,0,0,0.0085,0.0086,0.008,0.0091,0.0081,0.0058,0.0056,0.0043,0.0023,0.0021,-0.0016,-0.0025,-0.0038,-0.0064,-0.0063,-0.0085,-0.0109,-0.011,-0.006,-0.0054,-0.0049,-0.0028,-0.0095,0,0,0,0,0,0.0092,0.0104,0.0094,0.0101,0.01,0.0078,0.0072,0.0061,0.0043,0.0034,0.0007,-0.0021,-0.0043,-0.0055,-0.0081,-0.0092,-0.0117,-0.0094,-0.0089,-0.0084,-0.0073,-0.01,-0.0097,-0.0137,-0.0137,-0.0137,0,0,0.0095,0.0098,0.0103,0.0104,0.0093,0.0103,0.0074,0.0071,0.0078,0.0029,0.0026,-0.0007,-0.0043,-0.0055,-0.0063,-0.0073,-0.0087,-0.0084,-0.0079,-0.0071,-0.0099,-0.0095,-0.0092,-0.0136,-0.0136,-0.0136,0,0,0.0114,0.0113,0.0132,0.0131,0.0127,0.0119,0.0123,0.0106,0.0097,0.0088,0.0056,0.0035,-0.0003,-0.0022,-0.0038,-0.0023,-0.0062,-0.0036,0.0008,-0.0018,-0.0015,-0.0012,-0.004,-0.004,-0.0031,-0.0031,-0.0031,0,0.0118,0.0146,0.0134,0.0152,0.0161,0.0133,0.0157,0.0143,0.0121,0.0121,0.0096,0.0049,0.0015,0.0009,0.0013,-0.001,-0.0034,-0.0009,-0.0011,-0.0009,-0.0007,-0.0036,-0.0037,-0.0028,-0.0028,-0.0028,-0.0029,0,0.0157,0.0176,0.0187,0.0209,0.0213,0.0227,0.0216,0.0212,0.0195,0.0183,0.0167,0.0117,0.0094,0.0074,0.0046,0.0044,0.0021,-0.0002,-0.0021,0.0001,-0.0031,-0.0033,-0.0023,-0.0024,-0.0025,-0.0026,0,0,0.0181,0.0211,0.0216,0.024,0.0248,0.026,0.027,0.0279,0.0298,0.0255,0.0269,0.0216,0.0188,0.0168,0.0126,0.01,0.0084,0.0059,0.0056,0.0039,0.0025,0.0016,0.0012,0.0059,0.0059,0.0059,-0.0002,0,0.0219,0.0273,0.0276,0.0326,0.0357,0.0341,0.0359,0.0359,0.035,0.0353,0.0294,0.0286,0.0225,0.0215,0.0179,0.0112,0.0081,0.0103,-0.0001,-0.0004,-0.0009,0.001,0.0048,-0.0003,-0.0005,-0.0006,-0.0006,0,0.0266,0.0299,0.0357,0.0402,0.0413,0.0433,0.0469,0.0484,0.0475,0.0466,0.0441,0.0393,0.035,0.029,0.0188,0.0205,0.0124,0.0062,0.0058,0.0028,-0.0017,-0.0027,-0.0008,-0.0122,-0.001,-0.001,-0.0009,0,0.0308,0.036,0.0412,0.0426,0.0465,0.0484,0.0506,0.0518,0.0554,0.0542,0.0556,0.0488,0.0464,0.0353,0.0219,0.0205,0.0102,0.0064,-0.0022,-0.0024,-0.0022,-0.0024,-0.0116,-0.0009,-0.0009,-0.0008,-0.0008,0,0.036,0.0401,0.0435,0.0464,0.0533,0.0537,0.061,0.0617,0.0647,0.0703,0.0622,0.0643,0.0479,0.0394,0.0256,0.0118,0.0128,-0.0006,-0.0036,0.0001,0.0002,-0.0122,-0.0207,-0.0011,-0.001,-0.001,-0.0009,0,0.0402,0.0421,0.0488,0.0536,0.0556,0.0608,0.0689,0.0745,0.0755,0.0821,0.0819,0.0768,0.0665,0.0487,0.0316,0.0184,-0.003,-0.0019,0.0035,0.0012,-0.0171,-0.0253,-0.0393,-0.0446,-0.0117,-0.0118,-0.0118,0,0.0431,0.0467,0.0544,0.0594,0.0618,0.0695,0.0755,0.0798,0.087,0.0906,0.0948,0.0867,0.0844,0.0588,0.0339,0.01,-0.0038,-0.0036,-0.0059,-0.0167,-0.0281,-0.0339,-0.0377,-0.0036,-0.0036,-0.0036,-0.0036,0,0.0487,0.0509,0.0565,0.0665,0.0737,0.0832,0.0921,0.0996,0.105,0.1108,0.1173,0.1153,0.0914,0.0706,0.0366,0.0196,-0.0108,-0.0039,-0.0163,-0.0231,-0.0288,-0.0356,-0.0018,-0.0034,-0.0034,-0.0034,-0.0034,-0.0034,0.0528,0.0578,0.0649,0.0747,0.0836,0.0953,0.1045,0.1151,0.1276,0.1372,0.1349,0.1355,0.1034,0.0597,0.0348,-0.0074,-0.0106,-0.0197,-0.029,-0.0339,-0.0382,-0.0039,-0.0082,-0.0082,-0.0083,-0.0083,-0.0083,0,0.0582,0.0637,0.0728,0.0845,0.095,0.0987,0.1145,0.1246,0.1403,0.1495,0.1558,0.1413,0.1033,0.0613,0.0038,-0.0261,-0.0368,-0.0432,-0.0503,-0.0532,-0.0227,-0.0214,-0.0272,-0.0272,-0.0272,-0.0271,-0.0271,-0.0271,0.0611,0.0699,0.0744,0.0915,0.1001,0.1146,0.1242,0.1393,0.1502,0.1628,0.1641,0.1621,0.1286,0.0301,-0.0351,-0.0501,-0.0716,-0.0773,-0.0894,-0.0683,-0.0668,-0.0653,-0.0658,-0.0808,-0.0809,-0.1125,-0.1129,-0.1131]}],[{"header":{"parameterUnit":"m.s-1","parameterCategory":2,"la1":30.2991,"la2":30.254,"lo1":-89.0895,"lo2":-89.0444,"dy":0.0017,"dx":0.0017,"nx":28,"ny":28,"refTime":"2025-12-02T03:00:00:Z","depth":"2","parameterNumber":2,"parameterNumberName":"U-component_of_CURRENTS"},"data":[0,0,0,0,0,0,0,0,0,0,0,0,0,0,0,0,0,0,0,0,0,0,0,0,0,0,0,0,0,0,0,0,0,0,0,0,0,0,0,0,0,0,0,0,0,0,0,0,0,0,0,0,0,0,0,0,0,0,0.2641,0.2641,0,0.2639,0.2639,0.2639,0.2628,0.2628,0.2628,0.2628,0.2616,0.2616,0.2616,0,0,0,0,0,0,0,0,0,0,0,0,0,0.263,0.263,0.2641,0.2641,0.2641,0.2639,0.2639,0.2639,0.2628,0.2628,0.2628,0.2628,0.2616,0.2616,0.2615,0,0,0,0,0,0,0,0,0,0,0,0,0,0.263,0.263,0.2641,0.2638,0.2638,0.2639,0.2639,0.2638,0.2628,0.2628,0.2628,0.2628,0.2616,0.2616,0.2615,0.2613,0,0,0.2614,0.2614,0,0,0,0,0,0,0,0,0.263,0.263,0.2638,0.2638,0.2638,0.2636,0.2631,0.263,0.2628,0.2628,0.2628,0.2628,0.2624,0.2623,0.2618,0.2612,0.2612,0.2614,0.2614,0.2614,0.2613,0,0,0,0,0,0,0,0.263,0.263,0.2637,0.2638,0.2638,0.2635,0.2635,0.2631,0.2624,0.2628,0.2628,0.2633,0.2623,0.2619,0.2618,0.2612,0.2614,0.2614,0.2613,0.2613,0.2655,0.2657,0,0,0,0,0,0,0.2636,0.263,0.2637,0.2638,0.2637,0.2635,0.2635,0.2634,0.2624,0.2623,0.2633,0.2632,0.262,0.2619,0.2618,0.2654,0.2614,0.2613,0.2613,0.2654,0.2655,0.2657,0,0,0,0,0,0,0.2636,0.2636,0.2638,0.2636,0.2636,0.2636,0.2635,0.2634,0.2643,0.2628,0.2626,0.2644,0.262,0.2618,0.2631,0.2652,0.2613,0.2613,0.2652,0.2654,0.2656,0.2701,0,0,0,0,0,0,0.2635,0.2636,0.2643,0.2636,0.2637,0.265,0.2636,0.2634,0.2646,0.2646,0.2637,0.2635,0.262,0.2632,0.263,0.2651,0.2612,0.265,0.2653,0.2656,0.2698,0.2704,0.271,0,0,0,0,0,0.2635,0.2641,0.2643,0.2644,0.2644,0.2651,0.2651,0.2649,0.2647,0.2656,0.2653,0.2636,0.2647,0.2632,0.2631,0.2651,0.2649,0.2652,0.2655,0.2695,0.2703,0.271,0,0,0,0,0,0,0.264,0.2641,0.2643,0.2649,0.2658,0.2651,0.266,0.2659,0.2663,0.2666,0.2649,0.2647,0.2669,0.2657,0.264,0.2673,0.2648,0.2651,0.2678,0.2686,0.2692,0.2702,0.2612,0,0,0,0,0,0.2645,0.2651,0.2654,0.2662,0.2668,0.2668,0.2673,0.2674,0.2675,0.2676,0.2671,0.2671,0.2679,0.2679,0.2682,0.2694,0.2698,0.2709,0.2716,0.2721,0.273,0.2756,0.2765,0.2667,0.2667,0.2667,0,0,0.2649,0.2653,0.2656,0.2665,0.2669,0.268,0.267,0.2685,0.2697,0.2675,0.2691,0.2694,0.2689,0.2707,0.2715,0.2698,0.2752,0.2725,0.2729,0.2736,0.276,0.277,0.2778,0.2669,0.2669,0.2669,0,0,0.2657,0.2666,0.2672,0.2683,0.2698,0.27,0.271,0.2714,0.2721,0.2737,0.2731,0.275,0.275,0.2755,0.2757,0.28,0.2788,0.2801,0.2834,0.2859,0.2867,0.2874,0.2896,0.2905,0.2799,0.2799,0.2799,0,0.2665,0.2668,0.2677,0.2689,0.2699,0.2712,0.2723,0.2736,0.2745,0.2756,0.275,0.2779,0.2775,0.2804,0.282,0.2814,0.2824,0.2803,0.2867,0.2874,0.288,0.2901,0.291,0.2802,0.2801,0.2801,0.2801,0,0.2671,0.2683,0.2691,0.2709,0.2724,0.2738,0.2757,0.2776,0.2787,0.2798,0.2835,0.2838,0.2854,0.2861,0.2852,0.29,0.2892,0.2874,0.2846,0.2893,0.2912,0.292,0.2805,0.2804,0.2804,0.2803,0,0,0.2658,0.2688,0.2691,0.2699,0.2734,0.2741,0.2778,0.2804,0.2834,0.2852,0.2887,0.291,0.292,0.2925,0.2925,0.2949,0.3006,0.2935,0.2935,0.2953,0.3065,0.3009,0.3012,0.2997,0.2999,0.3001,0.3061,0,0.2658,0.2676,0.2695,0.2717,0.2725,0.2758,0.279,0.2824,0.2858,0.2899,0.2922,0.2959,0.2942,0.2963,0.2984,0.3007,0.303,0.2991,0.302,0.3021,0.2962,0.3021,0.2772,0.2801,0.3069,0.3071,0.3072,0,0.2649,0.2662,0.2679,0.2714,0.2723,0.2746,0.28,0.2834,0.2905,0.2938,0.2983,0.3006,0.3057,0.3034,0.3092,0.3068,0.3073,0.3084,0.3085,0.3023,0.2981,0.2797,0.2806,0.3086,0.3085,0.3084,0.3083,0,0.2612,0.2646,0.2655,0.2668,0.2717,0.2737,0.2771,0.2842,0.2884,0.2974,0.3014,0.3072,0.3109,0.3133,0.3152,0.313,0.3211,0.3177,0.313,0.3126,0.2915,0.2889,0.3216,0.3216,0.3215,0.3215,0.3215,0,0.2589,0.2595,0.264,0.2644,0.267,0.2717,0.2765,0.282,0.2909,0.2959,0.303,0.3078,0.3138,0.3181,0.3184,0.3191,0.3235,0.3154,0.3144,0.2924,0.29,0.3142,0.3133,0.3218,0.3217,0.3217,0.3216,0,0.2539,0.2569,0.258,0.2631,0.265,0.2669,0.2752,0.2789,0.289,0.2961,0.2992,0.3104,0.3167,0.321,0.3265,0.3229,0.3244,0.3228,0.2971,0.2929,0.3134,0.3126,0.3188,0.3187,0.3186,0.3185,0.3184,0,0.2512,0.2514,0.256,0.2568,0.2589,0.2632,0.2662,0.2768,0.2813,0.2958,0.298,0.309,0.3133,0.3208,0.3179,0.3185,0.3236,0.2947,0.2858,0.315,0.3134,0.3129,0.3123,0.2597,0.2592,0.2587,0.2584,0,0.246,0.2481,0.2492,0.251,0.2533,0.2558,0.2611,0.2646,0.2764,0.2827,0.2911,0.2969,0.3054,0.2954,0.2979,0.2943,0.2929,0.2856,0.3227,0.2649,0.2599,0.2582,0.2594,0.2543,0.2547,0.255,0.2552,0.2554,0.2422,0.2414,0.2431,0.2436,0.2459,0.246,0.2446,0.2507,0.2555,0.261,0.275,0.274,0.2779,0.269,0.2608,0.2539,0.2746,0.2604,0.2615,0.2631,0.2558,0.2509,0.2423,0.2426,0.2429,0.2431,0.2434,0,0.2352,0.2349,0.2352,0.2339,0.2311,0.2365,0.2383,0.2342,0.2332,0.2416,0.2463,0.2276,0.2221,0.2249,0.2088,0.2097,0.2047,0.2002,0.1904,0.1948,0.1987,0.1876,0.1563,0.156,0.1557,0.1554,0,0,0.2316,0.2277,0.2266,0.2187,0.218,0.2106,0.209,0.2053,0.2067,0.2022,0.199,0.2148,0.2207,0.1856,0.1818,0.1657,0.1786,0.1592,0.23,0.2232,0.2265,0.2353,0.2237,0,0,0,0,0]},{"header":{"parameterUnit":"m.s-1","parameterCategory":2,"la1":30.2991,"la2":30.254,"lo1":-89.0895,"lo2":-89.0444,"dy":0.0017,"dx":0.0017,"nx":28,"ny":28,"refTime":"2025-12-02T03:00:00:Z","depth":"2","parameterNumber":3,"parameterNumberName":"V-component_of_CURRENTS"},"data":[0,0,0,0,0,0,0,0,0,0,0,0,0,0,0,0,0,0,0,0,0,0,0,0,0,0,0,0,0,0,0,0,0,0,0,0,0,0,0,0,0,0,0,0,0,0,0,0,0,0,0,0,0,0,0,0,0,0,0.0285,0.0284,0,0.0236,0.0235,0.0235,0.0202,0.0202,0.0202,0.0201,0.0136,0.0134,0.0132,0,0,0,0,0,0,0,0,0,0,0,0,0,0.0286,0.0286,0.0285,0.0284,0.0284,0.0236,0.0235,0.0234,0.0202,0.0202,0.0201,0.0201,0.0136,0.0134,0.0132,0,0,0,0,0,0,0,0,0,0,0,0,0,0.0265,0.0286,0.0285,0.0263,0.026,0.0236,0.0235,0.0234,0.0202,0.0202,0.0201,0.0201,0.0137,0.0135,0.0132,0.012,0,0,0.0125,0.0123,0,0,0,0,0,0,0,0,0.0266,0.0265,0.0266,0.0264,0.0261,0.0226,0.0211,0.0196,0.0202,0.0223,0.0201,0.0201,0.0165,0.016,0.015,0.0117,0.0115,0.0124,0.0123,0.0122,0.0121,0,0,0,0,0,0,0,0.0268,0.0266,0.0264,0.0266,0.0263,0.0233,0.0231,0.0208,0.0194,0.0221,0.0219,0.0215,0.0164,0.0153,0.0148,0.0114,0.0124,0.0122,0.0121,0.012,0.007,0.007,0,0,0,0,0,0,0.028,0.0268,0.0266,0.0263,0.0265,0.0234,0.0231,0.0236,0.0195,0.0189,0.0215,0.0214,0.0157,0.0151,0.0146,0.0142,0.0122,0.012,0.0118,0.007,0.007,0.007,0,0,0,0,0,0,0.028,0.0281,0.0268,0.0264,0.0261,0.0235,0.0241,0.0236,0.0226,0.0191,0.0184,0.0212,0.0156,0.0149,0.0133,0.0139,0.0118,0.0116,0.0069,0.007,0.007,0.0126,0,0,0,0,0,0,0.0281,0.0281,0.0287,0.0266,0.0262,0.0261,0.0241,0.0235,0.0225,0.0222,0.0186,0.0179,0.0156,0.0137,0.013,0.0135,0.0114,0.0069,0.007,0.007,0.0124,0.0128,0.0132,0,0,0,0,0,0.0281,0.0294,0.0288,0.0287,0.0272,0.0261,0.0256,0.0235,0.0225,0.0225,0.0201,0.018,0.0134,0.0135,0.0127,0.0131,0.0069,0.007,0.007,0.0122,0.0127,0.0132,0,0,0,0,0,0,0.0295,0.0292,0.0284,0.0295,0.0282,0.0256,0.0254,0.0239,0.022,0.0217,0.0183,0.0176,0.0162,0.0139,0.0141,0.0117,0.0097,0.0096,0.014,0.0144,0.0148,0.0165,0.0112,0,0,0,0,0,0.0302,0.0313,0.0299,0.0306,0.0303,0.0278,0.027,0.0258,0.0239,0.023,0.0204,0.0177,0.0157,0.0146,0.0122,0.0111,0.0086,0.0107,0.0111,0.0114,0.0123,0.0092,0.0095,0.0071,0.0071,0.0071,0,0,0.0308,0.0308,0.0313,0.031,0.0297,0.0302,0.0273,0.0267,0.027,0.0226,0.0219,0.019,0.0157,0.0145,0.0136,0.0127,0.0107,0.0115,0.0118,0.0125,0.0093,0.0095,0.0098,0.0071,0.0071,0.0071,0,0,0.0328,0.0327,0.0342,0.0337,0.0327,0.0317,0.0319,0.0297,0.0286,0.0275,0.0246,0.0224,0.0189,0.017,0.0156,0.0166,0.0128,0.0154,0.0188,0.0159,0.0161,0.0162,0.0132,0.0131,0.0157,0.0157,0.0157,0,0.0335,0.0357,0.0343,0.0355,0.0359,0.033,0.0347,0.0332,0.0307,0.0304,0.0282,0.0234,0.0204,0.0194,0.0196,0.0176,0.0152,0.0176,0.0165,0.0166,0.0166,0.0135,0.0133,0.0159,0.0159,0.0159,0.0159,0,0.0368,0.0383,0.0391,0.0404,0.0404,0.0412,0.0397,0.0391,0.0372,0.0357,0.0338,0.0291,0.0267,0.0248,0.0225,0.0215,0.0194,0.0174,0.0157,0.0172,0.0138,0.0134,0.0163,0.0162,0.0162,0.0161,0,0,0.0392,0.0413,0.0415,0.0434,0.0434,0.044,0.0446,0.0448,0.046,0.0417,0.0422,0.0374,0.0345,0.0327,0.0288,0.0258,0.0234,0.0221,0.0218,0.0199,0.0167,0.0155,0.015,0.0212,0.0211,0.0211,0.0142,0,0.0424,0.0466,0.0465,0.0504,0.0527,0.0509,0.0522,0.0516,0.0503,0.0499,0.0443,0.0431,0.0377,0.0366,0.0327,0.0262,0.0227,0.0255,0.0149,0.0147,0.014,0.0146,0.0172,0.0113,0.0138,0.0137,0.0137,0,0.046,0.0487,0.0532,0.0567,0.0575,0.059,0.0613,0.0624,0.0608,0.0596,0.0567,0.0522,0.0475,0.0423,0.0318,0.0338,0.026,0.02,0.0196,0.0165,0.0128,0.01,0.0105,0.013,0.0131,0.0131,0.0132,0,0.0496,0.0536,0.0579,0.0589,0.0618,0.0632,0.0649,0.0652,0.0681,0.0661,0.0671,0.0599,0.0572,0.0465,0.0338,0.0328,0.0217,0.0187,0.01,0.0098,0.009,0.0088,0.011,0.011,0.011,0.011,0.011,0,0.0537,0.057,0.0598,0.062,0.0677,0.0678,0.0737,0.0739,0.076,0.0804,0.0727,0.0738,0.0582,0.0496,0.0367,0.0228,0.0237,0.011,0.0082,0.011,0.011,0.0102,0.0102,0.0107,0.0108,0.0108,0.0109,0,0.057,0.0586,0.0641,0.0679,0.0696,0.0738,0.0807,0.0853,0.0857,0.0908,0.0905,0.0846,0.0739,0.0572,0.0403,0.028,0.0138,0.0083,0.0126,0.0104,0.0029,0.0033,-0.0018,-0.0019,-0.002,-0.0021,-0.0021,0,0.0591,0.0621,0.0687,0.0728,0.0748,0.0813,0.0865,0.09,0.096,0.0981,0.1014,0.0926,0.0887,0.0634,0.0402,0.0174,0.0138,0.0042,0.0025,0.004,0.0017,0.0022,0.0026,0.0031,0.0031,0.003,0.003,0,0.0633,0.0653,0.0699,0.0786,0.0847,0.0932,0.1008,0.1071,0.1115,0.1157,0.1195,0.1162,0.0925,0.0709,0.0392,0.0239,0.0079,0.0033,0.0038,0.0064,0.0082,0.0061,0.0064,0.003,0.003,0.003,0.003,0.003,0.0663,0.0704,0.0765,0.0849,0.0928,0.1032,0.1111,0.1198,0.1299,0.136,0.133,0.1279,0.1028,0.0632,0.0362,0.0071,0.0087,-0.0018,-0.0016,-0.0015,0.0009,0.0024,-0.0034,-0.0035,-0.0035,-0.0035,-0.0035,0,0.0699,0.0746,0.0825,0.0924,0.1017,0.1055,0.1194,0.1274,0.1395,0.1439,0.1466,0.1222,0.0978,0.0674,0.025,0.0006,-0.0012,-0.0077,-0.0045,-0.0042,-0.004,-0.0017,-0.0068,-0.0069,-0.007,-0.007,0,0,0.0717,0.0789,0.0828,0.0974,0.1052,0.1182,0.1265,0.138,0.1447,0.1498,0.1466,0.1415,0.1055,0.0743,0.0413,0.0165,0.0116,0.0117,0.0173,0.0254,0.0259,0.0027,0.007,0,0,0,0,0]}],[{"header":{"parameterUnit":"m.s-1","parameterCategory":2,"la1":30.2991,"la2":30.254,"lo1":-89.0895,"lo2":-89.0444,"dy":0.0017,"dx":0.0017,"nx":28,"ny":28,"refTime":"2025-12-02T03:00:00:Z","depth":"4","parameterNumber":2,"parameterNumberName":"U-component_of_CURRENTS"},"data":[0,0,0,0,0,0,0,0,0,0,0,0,0,0,0,0,0,0,0,0,0,0,0,0,0,0,0,0,0,0,0,0,0,0,0,0,0,0,0,0,0,0,0,0,0,0,0,0,0,0,0,0,0,0,0,0,0,0,0.1667,0.1668,0,0.1725,0.1725,0.1726,0.1778,0.1779,0.178,0.1781,0.1848,0.1849,0.185,0,0,0,0,0,0,0,0,0,0,0,0,0,0.1598,0.1599,0.1667,0.1668,0.1669,0.1725,0.1725,0.1726,0.1778,0.1779,0.178,0.1781,0.1848,0.1849,0.185,0,0,0,0,0,0,0,0,0,0,0,0,0,0.1637,0.1599,0.1667,0.1703,0.1707,0.1725,0.1725,0.1726,0.1778,0.1779,0.178,0.1782,0.1847,0.1849,0.185,0.1835,0,0,0.1855,0.1856,0,0,0,0,0,0,0,0,0.1635,0.164,0.1697,0.1701,0.1705,0.1748,0.1726,0.1764,0.1778,0.1749,0.1781,0.1782,0.1816,0.182,0.1825,0.1838,0.1841,0.1855,0.1856,0.1857,0.1857,0,0,0,0,0,0,0,0.1632,0.1637,0.1688,0.1698,0.1703,0.1716,0.1722,0.1733,0.1773,0.1751,0.1756,0.1765,0.1818,0.1823,0.1827,0.1842,0.1855,0.1856,0.1857,0.1858,0.1965,0.1967,0,0,0,0,0,0,0.1628,0.1635,0.1686,0.169,0.1675,0.1716,0.1723,0.1731,0.1773,0.1781,0.1764,0.1768,0.182,0.1825,0.183,0.1916,0.1857,0.1858,0.1859,0.1963,0.1965,0.1968,0,0,0,0,0,0,0.1626,0.1632,0.1684,0.1665,0.1673,0.1716,0.1724,0.1731,0.1776,0.1783,0.1791,0.1805,0.1821,0.1827,0.1877,0.1915,0.1859,0.186,0.1961,0.1964,0.1967,0.2023,0,0,0,0,0,0,0.1624,0.1631,0.1653,0.1665,0.1674,0.1718,0.1723,0.1732,0.1778,0.1784,0.182,0.1825,0.1823,0.1874,0.1878,0.1916,0.1861,0.1958,0.1962,0.1966,0.2019,0.2028,0.2035,0,0,0,0,0,0.1621,0.1638,0.1653,0.1661,0.1696,0.1719,0.1726,0.1758,0.1779,0.1802,0.1833,0.1826,0.19,0.1877,0.1881,0.1921,0.1957,0.1961,0.1965,0.2015,0.2026,0.2035,0,0,0,0,0,0,0.1619,0.1645,0.1662,0.1687,0.1715,0.173,0.176,0.1779,0.182,0.184,0.1845,0.1853,0.1913,0.1909,0.1884,0.1964,0.1929,0.1935,0.1966,0.1976,0.1984,0.1989,0.1863,0,0,0,0,0,0.1628,0.1653,0.1675,0.1701,0.1717,0.1746,0.1768,0.1791,0.182,0.1841,0.1866,0.1897,0.1926,0.1947,0.1968,0.2006,0.2007,0.2037,0.2046,0.2052,0.206,0.2094,0.2105,0.1982,0.1982,0.1982,0,0,0.1635,0.1655,0.167,0.1704,0.173,0.1758,0.1763,0.1807,0.1841,0.184,0.1906,0.1929,0.1944,0.1992,0.2019,0.1999,0.2089,0.2058,0.2063,0.2068,0.21,0.2111,0.2122,0.1985,0.1984,0.1984,0,0,0.1649,0.1681,0.1703,0.173,0.1777,0.1793,0.1814,0.1852,0.1886,0.1939,0.1955,0.2003,0.2043,0.2063,0.2075,0.2142,0.2133,0.2156,0.2199,0.2232,0.2242,0.2251,0.2267,0.2277,0.2158,0.2158,0.2158,0,0.1661,0.1688,0.1715,0.1744,0.1773,0.1813,0.1844,0.1878,0.1932,0.1962,0.1973,0.2059,0.2075,0.213,0.2159,0.216,0.2173,0.2157,0.2241,0.225,0.2258,0.2273,0.2283,0.2161,0.2161,0.2161,0.216,0,0.1679,0.1717,0.1736,0.1785,0.1819,0.1856,0.1901,0.195,0.1997,0.2027,0.2108,0.2137,0.2186,0.2204,0.2204,0.2276,0.2264,0.2248,0.2212,0.2274,0.2285,0.2295,0.2166,0.2165,0.2164,0.2163,0,0,0.1658,0.1733,0.1745,0.1776,0.1847,0.1871,0.194,0.1999,0.2054,0.2114,0.2179,0.224,0.2267,0.2285,0.23,0.2333,0.2403,0.2324,0.2324,0.2333,0.2474,0.2306,0.23,0.2405,0.2407,0.2409,0.2458,0,0.1668,0.1721,0.1761,0.1824,0.1854,0.1917,0.1974,0.204,0.2105,0.2179,0.2228,0.23,0.2294,0.2338,0.237,0.2402,0.2431,0.2391,0.2419,0.242,0.2257,0.2306,0.2415,0.2465,0.2467,0.2468,0.2469,0,0.1666,0.1705,0.1764,0.1845,0.1867,0.1918,0.202,0.208,0.2185,0.224,0.2317,0.236,0.2437,0.242,0.2495,0.2474,0.2484,0.2495,0.2497,0.2326,0.2269,0.2392,0.2486,0.2485,0.2484,0.2483,0.2482,0,0.162,0.1704,0.1752,0.1781,0.188,0.1932,0.1996,0.2104,0.2166,0.2296,0.2351,0.2438,0.2496,0.2531,0.2556,0.2543,0.2621,0.2596,0.245,0.2439,0.2549,0.2539,0.2643,0.2643,0.2643,0.2643,0.2643,0,0.1593,0.1637,0.1743,0.1769,0.1842,0.1923,0.2017,0.2097,0.2218,0.2282,0.2386,0.2437,0.2532,0.2578,0.2587,0.254,0.2643,0.2464,0.2441,0.2572,0.2564,0.2555,0.2545,0.2645,0.2644,0.2644,0.2643,0,0.1531,0.1601,0.1664,0.178,0.1823,0.188,0.2021,0.2079,0.2209,0.2299,0.2345,0.2465,0.2517,0.2576,0.2637,0.2557,0.2547,0.2504,0.2646,0.263,0.2337,0.2329,0.2342,0.2337,0.2332,0.2328,0.2325,0,0.1499,0.1528,0.1659,0.1701,0.1762,0.1861,0.1922,0.2064,0.2121,0.2283,0.2303,0.2413,0.2467,0.2412,0.2493,0.249,0.2459,0.2435,0.2377,0.2329,0.2308,0.2307,0.2305,0.2318,0.2317,0.2315,0.2314,0,0.1438,0.1504,0.1557,0.1643,0.1717,0.1782,0.188,0.1905,0.2051,0.2184,0.2202,0.2224,0.2272,0.2302,0.2317,0.2312,0.244,0.2385,0.2394,0.234,0.23,0.2283,0.2286,0.2298,0.23,0.2302,0.2303,0,0.1402,0.1422,0.1502,0.1562,0.1647,0.167,0.1736,0.1784,0.1853,0.2019,0.2019,0.2127,0.2244,0.221,0.2226,0.2206,0.2169,0.2089,0.2112,0.2131,0.2038,0.1954,0.183,0,0,0,0,0,0.1354,0.136,0.1411,0.146,0.1534,0.1583,0.1688,0.1753,0.1884,0.1842,0.1924,0.1955,0.1968,0.2031,0.1968,0.214,0.2185,0.2056,0.2108,0.2209,0.2227,0.2136,0,0,0,0,0,0,0.1319,0.1364,0.1373,0.1359,0.1373,0.1435,0.1496,0.1587,0.157,0.171,0.1728,0.1834,0.1882,0.1982,0.193,0.1948,0.1938,0.2132,0.2126,0.2198,0.2215,0.223,0.2143,0,0,0,0,0]},{"header":{"parameterUnit":"m.s-1","parameterCategory":2,"la1":30.2991,"la2":30.254,"lo1":-89.0895,"lo2":-89.0444,"dy":0.0017,"dx":0.0017,"nx":28,"ny":28,"refTime":"2025-12-02T03:00:00:Z","depth":"4","parameterNumber":3,"parameterNumberName":"V-component_of_CURRENTS"},"data":[0,0,0,0,0,0,0,0,0,0,0,0,0,0,0,0,0,0,0,0,0,0,0,0,0,0,0,0,0,0,0,0,0,0,0,0,0,0,0,0,0,0,0,0,0,0,0,0,0,0,0,0,0,0,0,0,0,0,0.0295,0.0295,0,0.0269,0.0269,0.0268,0.0255,0.0255,0.0255,0.0255,0.0218,0.0217,0.0216,0,0,0,0,0,0,0,0,0,0,0,0,0,0.0288,0.0289,0.0296,0.0295,0.0295,0.0269,0.0269,0.0268,0.0255,0.0255,0.0255,0.0255,0.0218,0.0217,0.0216,0,0,0,0,0,0,0,0,0,0,0,0,0,0.0279,0.0289,0.0296,0.0285,0.0284,0.0269,0.0269,0.0268,0.0255,0.0255,0.0255,0.0255,0.0219,0.0217,0.0216,0.0206,0,0,0.0211,0.0211,0,0,0,0,0,0,0,0,0.028,0.028,0.0287,0.0286,0.0285,0.0266,0.0253,0.0247,0.0255,0.0265,0.0255,0.0255,0.0233,0.0231,0.0225,0.0204,0.0203,0.0211,0.021,0.021,0.0209,0,0,0,0,0,0,0,0.0281,0.028,0.0285,0.0287,0.0285,0.0266,0.0266,0.0251,0.0249,0.0264,0.0263,0.0261,0.0233,0.0226,0.0224,0.0202,0.0211,0.021,0.0209,0.0208,0.0178,0.0178,0,0,0,0,0,0,0.0287,0.0281,0.0285,0.0284,0.0283,0.0267,0.0266,0.0271,0.0249,0.0246,0.0261,0.0261,0.0229,0.0226,0.0223,0.0226,0.021,0.0208,0.0207,0.0178,0.0178,0.0178,0,0,0,0,0,0,0.0287,0.0288,0.0286,0.0282,0.028,0.0267,0.0273,0.0271,0.027,0.0247,0.0244,0.0264,0.0229,0.0225,0.0219,0.0224,0.0208,0.0206,0.0178,0.0178,0.0178,0.0222,0,0,0,0,0,0,0.0288,0.0289,0.0297,0.0283,0.0281,0.0285,0.0273,0.027,0.0268,0.0267,0.0248,0.0244,0.0229,0.0221,0.0217,0.0222,0.0205,0.0178,0.0178,0.0178,0.0221,0.0224,0.0227,0,0,0,0,0,0.0287,0.03,0.0297,0.0298,0.0292,0.0285,0.0283,0.0273,0.0269,0.0271,0.0259,0.0245,0.0219,0.022,0.0215,0.022,0.0178,0.0178,0.0178,0.0219,0.0223,0.0227,0,0,0,0,0,0,0.0299,0.0299,0.0296,0.0308,0.03,0.0283,0.0286,0.0277,0.027,0.0271,0.0249,0.0244,0.024,0.0223,0.0225,0.021,0.0195,0.0194,0.0228,0.0231,0.0234,0.0245,0.0204,0,0,0,0,0,0.0306,0.0317,0.0308,0.0317,0.0316,0.0302,0.0298,0.0292,0.0282,0.0279,0.0264,0.0248,0.0235,0.0229,0.0215,0.0209,0.0186,0.0207,0.021,0.0212,0.0218,0.0187,0.0188,0.0179,0.0179,0.0179,0,0,0.0313,0.0314,0.032,0.0321,0.0314,0.0319,0.03,0.03,0.0305,0.0276,0.0278,0.0259,0.0236,0.0231,0.0227,0.0219,0.0202,0.0213,0.0215,0.0219,0.0188,0.0189,0.019,0.0179,0.0179,0.0179,0,0,0.033,0.0333,0.0347,0.0345,0.0341,0.0335,0.0338,0.0326,0.0322,0.0319,0.03,0.0286,0.0267,0.0252,0.0241,0.0251,0.022,0.0243,0.0268,0.0239,0.024,0.024,0.0211,0.0208,0.0245,0.0245,0.0245,0,0.0338,0.0356,0.0348,0.0358,0.0363,0.0346,0.036,0.0352,0.034,0.034,0.0327,0.0297,0.0277,0.0269,0.0272,0.0258,0.0236,0.0259,0.0243,0.0243,0.0243,0.0213,0.021,0.0247,0.0247,0.0246,0.0246,0,0.0361,0.0377,0.0384,0.0397,0.0399,0.0409,0.04,0.04,0.0392,0.0383,0.0373,0.034,0.0324,0.0311,0.0295,0.0283,0.0266,0.0252,0.0237,0.0247,0.0214,0.021,0.025,0.0249,0.0249,0.0248,0,0,0.0377,0.0399,0.0402,0.0419,0.0424,0.043,0.0439,0.0444,0.0456,0.0429,0.0434,0.0402,0.0382,0.0368,0.034,0.0311,0.0286,0.0284,0.0282,0.0261,0.0221,0.0207,0.02,0.0269,0.0268,0.0268,0.0199,0,0.0399,0.0433,0.0437,0.0471,0.0489,0.0483,0.0496,0.0496,0.0491,0.049,0.0449,0.0444,0.0405,0.0399,0.0364,0.031,0.0277,0.0306,0.021,0.0208,0.0198,0.0195,0.0266,0.0196,0.0195,0.0194,0.0193,0,0.0421,0.0444,0.0483,0.0518,0.0526,0.0543,0.0567,0.0579,0.057,0.0565,0.0544,0.0511,0.0472,0.0434,0.0342,0.0362,0.0298,0.0247,0.0243,0.0212,0.0185,0.0183,0.0185,0.0186,0.0186,0.0187,0.0187,0,0.0439,0.0478,0.0515,0.0526,0.0557,0.0576,0.0595,0.0603,0.0627,0.0616,0.0624,0.0565,0.0544,0.0454,0.035,0.0346,0.024,0.0221,0.0143,0.0141,0.0156,0.0156,0.015,0.015,0.015,0.015,0.0151,0,0.0461,0.0492,0.053,0.0549,0.0601,0.061,0.0663,0.0669,0.069,0.0721,0.0669,0.0668,0.0548,0.0472,0.0367,0.0245,0.0251,0.0148,0.0123,0.0175,0.0179,0.0152,0.0153,0.0148,0.0148,0.0149,0.0149,0,0.0472,0.0496,0.0545,0.0591,0.0612,0.065,0.0719,0.0755,0.0767,0.0803,0.0802,0.0748,0.065,0.0518,0.0372,0.0277,0.0155,0.0107,0.0176,0.0156,0.007,0.0074,0.0016,0.0014,0.0014,0.0013,0.0012,0,0.048,0.0506,0.0578,0.0617,0.0642,0.0706,0.0753,0.0791,0.0833,0.0849,0.0864,0.0788,0.0729,0.0518,0.0375,0.017,0.0136,0.0066,0.0061,0.0074,0.0056,0.0062,0.0067,0.0011,0.0011,0.001,0.001,0,0.0494,0.0523,0.0564,0.0646,0.0706,0.0779,0.0846,0.0881,0.0922,0.0933,0.091,0.0801,0.0689,0.0521,0.0362,0.0214,0.0108,0.0056,0.0057,0.0051,0.0068,0.0052,0.0058,0.0007,0.0007,0.0008,0.0008,0,0.0505,0.0537,0.0596,0.0667,0.0748,0.0821,0.0862,0.0906,0.0945,0.0955,0.0946,0.0824,0.0759,0.0544,0.0399,0.0251,0.0207,0.0145,0.014,0.0142,0.0194,0.0234,0.0205,0,0,0,0,0,0.0511,0.0546,0.0612,0.069,0.0774,0.0823,0.0909,0.0943,0.098,0.0967,0.0958,0.0851,0.0641,0.056,0.0408,0.0371,0.0175,0.0186,0.01,-0.001,-0.0007,0.0031,0,0,0,0,0,0,0.0513,0.0572,0.0604,0.0696,0.0754,0.0848,0.0906,0.0936,0.0933,0.0944,0.0842,0.0794,0.0599,0.0722,0.0398,0.0356,0.0275,0.0095,0.0091,-0.0012,-0.0009,-0.0006,0.0034,0,0,0,0,0]}]]